Torna al catalogo

SL-16 DEB

AttivoSSO
NORAD 35420·DEBRIS·🇷🇺 Russia

Lanciato Dec 10, 2001 da Baikonur Cosmodrome

Loading…

Prossimi Passaggi (prossime 24 ore)

TLE

AggiornatoSource: Space-Track

Epoca: Sep 14, 2026, 08:11 UTC

1 35420U 01056M   26257.34148984  .00000331  00000-0  37493-3 0  9995
2 35420  99.4641  31.6978 0024207  35.9052 352.5415 13.77786834239050

Traccia SL-16 DEB in tempo reale con AllMySat

Download on the App Store